,

(GMT )
Al Udeid

Weather History for KQIR - November, 2012

Change the Weather History Date:

Friday, November 2, 2012

  Actual Average Record
Temperature  
Mean Temperature 80 °F -  
Max Temperature 88 °F - - ()
Min Temperature 72 °F - - ()
Cooling Degree Days 15    
Growing Degree Days 30 (Base 50)    
Moisture  
Dew Point 63 °F    
Average Humidity 58    
Maximum Humidity 74    
Minimum Humidity 39    
Precipitation  
Precipitation 0.00 in - - ()
Sea Level Pressure  
Sea Level Pressure 29.93 in    
Wind  
Wind Speed 9 mph ()    
Max Wind Speed 16 mph    
Max Gust Speed 21 mph    
Visibility 6.2 miles    
Events      
Averages and records for this station are not official NWS values.
T = Trace of Precipitation, MM = Missing Value Source: Averaged Metar Reports

Daily Weather History Graph

Daily Weather History Graph

Search for Another Location

Airport or City:

Trip Planner

Search our weather history database for the weather conditions in past years. The results will help you decide how hot, cold, wet, or windy it might be!

Date:

Astronomy

Nov. 02, 2012 Rise Set
Actual Time 5:43 AM +03 4:53 PM +03
Civil Twilight 5:19 AM +03 5:16 PM +03
Nautical Twilight 4:52 AM +03 5:43 PM +03
Astronomical Twilight 4:25 AM +03 6:10 PM +03
Moon 7:32 PM +03 (11/2) 8:32 AM +03 (11/2)
Length of Visible Light 11h 57m
Length of Day
11h 10m
Waning Gibbous, 89% of the Moon is Illuminated
Nov 2
Waning Gibbous
Nov 7
Last Quarter
Nov 14
New
Nov 20
First Quarter
Nov 28
Full

Hourly Weather History & Observations

Time (+03) Temp. Heat Index Dew Point Humidity Pressure Visibility Wind Dir Wind Speed Gust Speed Precip Events Conditions
12:55 AM 73.2 °F - 60.6 °F 65% 29.93 in 6.2 mi NW 6.9 mph - N/A   Clear
1:55 AM 73.0 °F - 62.6 °F 70% 29.93 in 6.2 mi WNW 9.2 mph - N/A   Clear
2:55 AM 73.6 °F - 63.9 °F 72% 29.93 in 6.2 mi WNW 10.4 mph - N/A   Clear
3:55 AM 73.2 °F - 63.5 °F 71% 29.93 in 6.2 mi NW 10.4 mph - N/A   Clear
4:55 AM 72.9 °F - 63.5 °F 72% 29.94 in 6.2 mi NW 10.4 mph - N/A   Clear
5:55 AM 72.7 °F - 64.0 °F 74% 29.95 in 6.2 mi WNW 10.4 mph - N/A   Clear
6:55 AM 75.7 °F - 65.5 °F 70% 29.96 in 6.2 mi NW 12.7 mph - N/A   Clear
7:55 AM 79.5 °F - 66.0 °F 63% 29.98 in 6.2 mi NW 15.0 mph - N/A   Clear
8:55 AM 82.4 °F 84.4 °F 66.0 °F 57% 29.98 in 6.2 mi NW 15.0 mph - N/A   Clear
9:55 AM 85.1 °F 86.1 °F 63.3 °F 48% 29.97 in 6.2 mi NW 16.1 mph - N/A   Scattered Clouds
10:55 AM 86.4 °F 87.8 °F 64.4 °F 48% 29.95 in 6.2 mi NNW 12.7 mph - N/A   Scattered Clouds
11:55 AM 87.8 °F 88.8 °F 63.5 °F 44% 29.92 in 6.2 mi North 15.0 mph 20.7 mph N/A   Scattered Clouds
12:55 PM 88.2 °F 89.0 °F 62.8 °F 43% 29.90 in 6.2 mi North 15.0 mph 19.6 mph N/A   Scattered Clouds
1:55 PM 88.7 °F 88.6 °F 60.6 °F 39% 29.88 in 6.2 mi North 11.5 mph - N/A   Scattered Clouds
2:55 PM 86.9 °F 87.0 °F 61.0 °F 42% 29.88 in 6.2 mi NE 15.0 mph - N/A   Scattered Clouds
3:55 PM 85.1 °F 85.2 °F 60.6 °F 44% 29.88 in 6.2 mi NE 11.5 mph - N/A   Scattered Clouds
4:55 PM 83.7 °F 84.3 °F 62.2 °F 48% 29.89 in 6.2 mi NE 8.1 mph - N/A   Scattered Clouds
5:55 PM 82.6 °F 83.9 °F 63.7 °F 53% 29.91 in 6.2 mi NNE 5.8 mph - N/A   Scattered Clouds
6:55 PM 81.7 °F 82.7 °F 62.6 °F 52% 29.92 in 6.2 mi North 10.4 mph - N/A   Clear
7:55 PM 80.2 °F 81.5 °F 62.8 °F 55% 29.93 in 6.2 mi North 9.2 mph - N/A   Clear
8:55 PM 78.3 °F - 62.6 °F 58% 29.94 in 6.2 mi NNW 8.1 mph - N/A   Clear
9:55 PM 78.1 °F - 64.6 °F 63% 29.93 in 6.2 mi NNW 8.1 mph - N/A   Clear
10:55 PM 76.1 °F - 64.2 °F 67% 29.92 in 6.2 mi NNW 6.9 mph - N/A   Clear
11:55 PM 74.8 °F - 64.8 °F 71% 29.91 in 6.2 mi NNW 8.1 mph - N/A   Clear